Regional Weather Roundup
Issued by NWS Cleveland, OH

Home | Current Version | Previous Version | Graphics & Text | Print | Product List | Glossary On
Versions: 1 2 3 4 5 6 7 8 9 10 11 12 13 14 15 16 17 18 19 20 21 22 23 24 25 26 27 28 29 30 31 32 33 34 35 36 37 38 39 40 41 42 43 44 45 46 47 48 49 50
000
ASUS41 KCLE 180210
RWRCLE
OHIO REGIONAL WEATHER ROUNDUP
NATIONAL WEATHER SERVICE CLEVELAND, OH
900 PM EST TUE JAN 17 2017

NOTE: "FAIR" INDICATES FEW OR NO CLOUDS BELOW 12,000 FEET WITH NO
SIGNIFICANT WEATHER AND/OR OBSTRUCTIONS TO VISIBILITY.

OHZ001>008-015>018-024>027-034-035-043-044-180300-
   NORTHWEST OHIO

CITY           SKY/WX    TMP DP  RH WIND       PRES   REMARKS
DEFIANCE       CLOUDY    42  38  85 W10G20    29.94R
FINDLAY        CLOUDY    45  40  82 W17       29.93R
TOLEDO EXPRESS CLOUDY    40  40 100 W17       29.93R
TOLEDO EXEC    CLOUDY    43  42  97 W14       29.93R
LIMA           CLOUDY    43  42  97 W18       29.95S
$$

OHZ009>014-019>023-028>033-038-089-180300-
   NORTHEAST OHIO

CITY           SKY/WX    TMP DP  RH WIND       PRES   REMARKS
CLE-HOPKINS    CLOUDY    49  41  74 W14       29.92R
CLE-LAKEFRONT  CLOUDY    42  39  89 W14       29.88R
CUY CO. ARPT   CLOUDY    48  32  53 W16G26    29.88S
LORAIN-ELYRIA  CLOUDY    46  41  82 W13G20    29.90R
ASHTABULA      CLOUDY    46  45  96 W15       29.87R FOG
AKRON-CANTON   CLOUDY    53  41  63 W16G24    29.89R
WOOSTER        CLOUDY    47  41  80 W12       29.91S
MANSFIELD      CLOUDY    45  43  93 SW14G22   29.91S
YOUNGSTOWN     CLOUDY    50  44  80 W9        29.87R
$$

OHZ042-051>053-060>062-070>072-077>081-180300-
  SOUTHWEST OHIO

CITY           SKY/WX    TMP DP  RH WIND       PRES   REMARKS
CINC-COVINGTON CLOUDY    46  40  79 W9        30.02F
CINC-LUNKEN    CLOUDY    48  41  76 W13       30.04S
HAMILTON       CLOUDY    47  41  80 SW10      30.03S
DAYTON         CLOUDY    44  42  93 W15       29.99S
WRIGHT-PAT AFB MOCLDY    46  44  95 SW10      29.99R
DAYTON GENERAL CLOUDY    46  41  82 SW7       30.00R
WILMINGTON     CLOUDY    46  40  79 W13       30.00S
$$

OHZ036-037-039>041-045>050-054>059-063>069-073>076-082>088-180300-
  CENTRAL AND SOUTHEAST OHIO

CITY           SKY/WX    TMP DP  RH WIND       PRES   REMARKS
COLUMBUS       CLOUDY    49  41  74 W14       29.97R
OSU AIRPORT    CLOUDY    47  43  86 W10       29.96R
BOLTON FIELD   CLOUDY    46  42  84 W8        29.99R
RICKENBACK AFB   N/A     47  41  78 W14       29.98R
NEWARK         CLOUDY    49  41  74 W17       29.95R
MARION         CLOUDY    46  42  86 W14       29.94S
LANCASTER      CLOUDY    50  41  71 W9G22     29.98R
ZANESVILLE     CLOUDY    53  44  71 W12       29.94R
NEW PHILLY     NOT AVBL
$$




USA.gov is the U.S. government's official web portal to all federal, state and local government web resources and services.